Regional Weather Roundup
Issued by NWS

Home | Current Version | Previous Version | Graphics & Text | Print | Product List | Glossary On
Versions: 1 2 3 4 5 6 7 8 9 10 11 12 13 14 15 16 17 18 19 20 21 22 23 24 25 26 27 28 29 30 31 32 33 34 35 36 37 38 39 40 41 42 43 44 45 46 47 48 49 50
058
ASUS45 KTFX 280110
RWRMT
MONTANA REGIONAL WEATHER ROUNDUP
NATIONAL WEATHER SERVICE GREAT FALLS MT
700 PM MDT SAT MAY 27 2017

NOTE: "FAIR" INDICATES FEW OR NO CLOUDS BELOW 12000 FEET WITH NO
SIGNIFICANT WEATHER AND/OR OBSTRUCTIONS TO VISIBILITY.

MTZ001>007-043-280200-
WEST OF THE DIVIDE

CITY           SKY/WX    TMP DP  RH WIND       PRES   REMARKS
KALISPELL      SUNNY     74  44  34 S12       30.09F
MISSOULA       SUNNY     76  37  24 W5        30.14S
BUTTE          CLOUDY    66  29  24 NW5       30.23S
MULLAN PASS    MOSUNNY   60  33  36 VRB3      30.28S
ANACONDA         N/A     66  36  32 CALM      30.21R
DEER LODGE       N/A     64  36  34 NW9       30.21F
EUREKA           N/A     81  39  22 E6        30.05F
HAMILTON         N/A     75  34  22 SE3       30.17S
RONAN            N/A     75  41  29 S3        30.17
$$

MTZ008-052>055-280200-
SOUTHWEST MONTANA

CITY           SKY/WX    TMP DP  RH WIND       PRES   REMARKS
BOZEMAN        MOSUNNY   68  40  35 NW7       30.18S
DILLON         SUNNY     67  32  27 CALM      30.20F
ENNIS          SUNNY     64  32  29 NW8G14    30.26S
THREE FORKS      N/A     70  33  25 CALM      30.15S
$$

MTZ009-010-012-014-046-048-049-054-280200-
EAST SLOPES AND CENTRAL MONTANA

CITY           SKY/WX    TMP DP  RH WIND       PRES   REMARKS
CUT BANK       PTSUNNY   73  34  23 W15       30.09S
GREAT FALLS    CLOUDY    69  37  30 N7        30.10S
MALMSTROM AFB  MOSUNNY   69  36  29 W10       30.10R
HELENA         MOSUNNY   75  37  25 W14       30.14S
CHOTEAU          N/A     73  32  21 VRB3      30.13S
CONRAD           N/A     76  39  26 SW14      30.11S
$$

MTZ011-013-016-021-045-047-050-051-280200-
NORTH CENTRAL MONTANA

CITY           SKY/WX    TMP DP  RH WIND       PRES   REMARKS
HAVRE          MOSUNNY   78  36  21 NW14      29.99S
LEWISTOWN      MOSUNNY   64  39  39 W9        30.11S
N BAR RANCH      N/A     63  36  36 NW15      30.14R
CHINOOK          N/A     72  39  30 N8        30.00R
FORT BENTON      N/A     79  34  19 MISG      30.04S
$$

MTZ017>020-022>027-061-062-280200-
NORTHEAST MONTANA

CITY           SKY/WX    TMP DP  RH WIND       PRES   REMARKS
GLASGOW        PTSUNNY   75  32  20 NW21G28   29.93R
JORDAN           N/A     76  29  17 NW20G31   29.97S
SIDNEY         SUNNY     73  36  25 N18G29    29.88R
WOLF POINT     MOSUNNY   76  34  21 NW18G28   29.90R
MALTA          MOSUNNY   73  36  25 N15G25    29.96R
PLENTYWOOD       N/A     72  34  25 NW24G31   29.85R
POPLAR           N/A     73  36  25 NW16G23   29.89S
$$

MTZ028>42-056>058-280200-
SOUTHCENTRAL AND SOUTHEAST MONTANA

CITY           SKY/WX    TMP DP  RH WIND       PRES   REMARKS
BAKER          CLOUDY    68  36  30 NW22G28   29.97R
BILLINGS       MOSUNNY   71  36  27 W20G26    30.09R
LIVINGSTON     SUNNY     68  36  30 SW10      30.16F
MILES CITY     MOSUNNY   72  35  25 N20G40    29.98R
BIG TIMBER     PTSUNNY   68  36  30 W17       30.18R
FORSYTH          N/A     73  34  23 NW12G20   29.99S
LAUREL           N/A     69  38  32 SW12      30.08F
ROUNDUP          N/A     73  35  24 W14       29.98S
$$

REGIONAL REPORTS...DAKOTAS

CITY           SKY/WX    TMP DP  RH WIND       PRES   REMARKS
WILLISTON      SUNNY     74  33  22 NW18G33   29.85R
MINOT          SUNNY     62  44  51 NW8       29.81S
DICKINSON      SUNNY     65  36  34 W29G39    29.87R
BEACH            N/A     59  45  58 W5        29.97S
CROSBY           N/A     68  30  24 N22G32    29.83R
TIOGA            N/A     68  37  32 NW17      29.84S
WATFORD CITY     N/A     70  37  30 N16G32    29.84S
BISMARCK       MOSUNNY   66  44  45 N7        29.84S
GRAND FORKS    CLOUDY    71  48  43 CALM      29.67F
FARGO          PTCLDY    73  38  27 SW13      29.71F
BUFFALO SD       N/A     63  44  50 W12       29.92R
RAPID CITY     PTSUNNY   68  34  28 NW14      30.00R
$$

REGIONAL REPORTS...WYOMING/IDAHO/WASHINGTON

CITY           SKY/WX    TMP DP  RH WIND       PRES   REMARKS
GILLETTE       PTSUNNY   64  38  38 NW20G26   30.10R
SHERIDAN       PTSUNNY   67  37  33 NW18      30.11S
BUFFALO WY     SUNNY     63  35  35 NW9       30.15S
CODY           SUNNY     67  28  23 N7        30.19S
YELLOWSTONE LA   N/A     51  30  44 VRB3      30.34S
IDAHO FALLS    MOSUNNY   66  39  37 VRB5      30.23F
SALMON         MOSUNNY   70  37  30 NW5       30.15S
BOISE          SUNNY     76  33  21 W7        30.14S
SPOKANE        MOSUNNY   78  40  25 SW8       30.12F
$$

REGIONAL REPORTS...ALBERTA

CITY           SKY/WX    TMP DP  RH WIND       PRES   REMARKS
EDMONTON       PTSUNNY   72  37  28 N13G20    30.03R
CALGARY        PTSUNNY   70  39  32 N20       30.10S
LETHBRIDGE     MOSUNNY   75  41  29 W12       30.04R
MEDICINE HAT   PTSUNNY   72  41  33 N10G18    29.97S
WATERTON GATE    N/A     72  32  23 SW12G17     N/A
CARDSTON         N/A     75  36  23 W8          N/A
$$

REGIONAL REPORTS...SASKATCHEWAN

CITY           SKY/WX    TMP DP  RH WIND       PRES   REMARKS
SWIFT CURRENT  SUNNY     72  36  26 N23G29    29.93R
REGINA         MOSUNNY   68  36  30 N18G29    29.84R
SASKATOON      MOSUNNY   70  32  24 NW18G30   29.90R
VAL MARIE        N/A     72  36  26 NW17G24     N/A
ROCKGLEN         N/A     68  36  30 N17G26      N/A
ASSINIBOIA       N/A     73  36  25 N17         N/A
$$




USA.gov is the U.S. government's official web portal to all federal, state and local government web resources and services.